Regional Weather Roundup
Issued by NWS

Home | Current Version | Previous Version | Text Only | Print | Product List | Glossary Off
Versions: 1 2 3 4 5 6 7 8 9 10 11 12 13 14 15 16 17 18 19 20 21 22 23 24 25 26 27 28 29 30 31 32 33 34 35 36 37 38 39 40 41 42 43 44 45 46 47 48 49 50

915
ASUS45 KCYS 191810
RWRWY

WYOMING REGIONAL WEATHER ROUNDUP
NATIONAL WEATHER SERVICE CHEYENNE WY
1100 AM MST MON FEB 19 2018

NOTE:  "FAIR" INDICATES FEW OR NO CLOUDS BELOW 12,000 FEET
WITH NO SIGNIFICANT WEATHER AND/OR OBSTRUCTIONS TO VISIBILITY.

WYZ001-191900-
YELLOWSTONE NATIONAL PARK

CITY           SKY/WX    TMP DP  RH WIND       PRES   REMARKS
LK YELLOWSTONE   N/A      2  -3  80 SE3       29.45F
6HR MIN TEMP:  -3; 6HR MAX TEMP:   3;

W YELLOWSTONE  NOT AVBL

$$
WYZ002>013-054>058-071-098>099-191900-
NORTHERN WYOMING

CITY           SKY/WX    TMP DP  RH WIND       PRES   REMARKS
JACKSON        FAIR      15   7  70 N6        29.46S WCI   6
CODY           FAIR      -3 -12  65 N15       29.80R WCI -23
GREYBULL       LGT SNOW   1  -4  79 W15       29.87S VSB 1   WCI -18
6HR MIN TEMP:   0; 6HR MAX TEMP:   2; 6HR PCP: TRACE;

WORLAND        LGT SNOW   1  -4  79 N9        29.85R VSB 3/4 WCI -14
6HR MIN TEMP:   1; 6HR MAX TEMP:   2; 6HR PCP: TRACE;

SHERIDAN       LGT SNOW   1  -4  79 N6        29.90F VSB 3/4 WCI -10
6HR MIN TEMP:  -2; 6HR MAX TEMP:   1; 6HR PCP:  0.04;

BUFFALO        LGT SNOW   0  -6  76 N5        29.80F VSB 1   WCI -10
6HR MIN TEMP:  -1; 6HR MAX TEMP:   0; 6HR PCP:  0.02;

GILLETTE       LGT SNOW   1  -5  75 N6        29.84S VSB 3/4 WCI -10
6HR MIN TEMP:  -1; 6HR MAX TEMP:   1; 6HR PCP:  0.08;

HULETT         LGT SNOW   1  -6  71 MISG      29.88S VSB 3/4
NEWCASTLE      LGT SNOW   3  -4  72 MISG      29.86F VSB 3/4

$$
WYZ014>020-022>026-101>103-191900-
CENTRAL WYOMING

CITY           SKY/WX    TMP DP  RH WIND       PRES   REMARKS
BIG PINEY      LGT SNOW  11   7  84 S8        29.43R VSB 1   WCI  -1
6HR MIN TEMP:   9; 6HR MAX TEMP:  12; 6HR PCP: TRACE;

PINEDALE       LGT SNOW  14   9  79 NW10      29.41R WCI   1
DUBOIS         NOT AVBL
LANDER         LGT SNOW   2  -3  80 E9        29.66R WCI -13
6HR MIN TEMP:   1; 6HR MAX TEMP:   3; 6HR PCP:  0.13;

RIVERTON       LGT SNOW   2  -5  72 NE12      29.67R WCI -15
6HR MIN TEMP:   1; 6HR MAX TEMP:   2; 6HR PCP:  0.11;

CASPER         SNOW      -2  -6  83 NE21      29.66F VSB 1/4 WCI -25
6HR MIN TEMP:  -3; 6HR MAX TEMP:  -2; 6HR PCP:  0.16;

DOUGLAS        LGT SNOW   0  -6  76 SE13      29.76R WCI -18
6HR MIN TEMP:   0; 6HR MAX TEMP:   3; 6HR PCP: TRACE;


$$
WYZ021-027>030-104>119-191900-
SOUTHERN WYOMING

CITY           SKY/WX    TMP DP  RH WIND       PRES   REMARKS
EVANSTON       HVY SNOW  11   7  84 E12       29.40R VSB 1/4 WCI  -3
6HR MIN TEMP:  11; 6HR MAX TEMP:  19; 6HR PCP:  0.02;

FORT BRIDGER   LGT SNOW   9   7  92 E13       29.45  WCI  -7
ROCK SPRINGS   LGT SNOW   2  -6  69 NE24G32   29.48R VSB 1   WCI -21
6HR MIN TEMP:   1; 6HR MAX TEMP:   4; 6HR PCP:  0.04;

DIXON          FLURRIES  11   2  68 W9        29.43S WCI  -2
RAWLINS        HAZE       1  -6  72 NE16      29.45R VSB 1/2 WCI -19
6HR MIN TEMP:  -2; 6HR MAX TEMP:   4;

SARATOGA       LGT SNOW   3   0  85 W8        29.41R WCI -10
LARAMIE        FAIR      11   5  77 SE33G40   29.32F WCI -12
6HR MIN TEMP:   3; 6HR MAX TEMP:  11; 6HR PCP: TRACE;

CHEYENNE       CLOUDY     4   2  91 E12       29.58F FOG     WCI -12
6HR MIN TEMP:   2; 6HR MAX TEMP:   5; 6HR PCP:  0.01;

TORRINGTON     CLOUDY     4  -3  73 NE14      29.80F WCI -14
6HR MIN TEMP:   4; 6HR MAX TEMP:   5; 6HR PCP: TRACE;

PINE BLUFFS    CLOUDY     7   1  78 NE8       29.70S WCI  -6

$$




USA.gov is the U.S. government's official web portal to all federal, state and local government web resources and services.